TimeCST,TemperatureF,Dew PointF,Humidity,Sea Level PressureIn,VisibilityMPH,Wind Direction,Wind SpeedMPH,Gust SpeedMPH,PrecipitationIn,Events,Conditions,WindDirDegrees,DateUTC
12:53 AM,35.1,35.1,100,30.05,0.5,Calm,Calm,-,N/A,Fog,Fog,0,2013-01-01 06:53:00
1:04 AM,35.6,35.6,100,30.02,0.8,Calm,Calm,-,N/A,,Overcast,0,2013-01-01 07:04:00
1:33 AM,35.6,35.6,100,30.01,1.0,Calm,Calm,-,N/A,,Overcast,0,2013-01-01 07:33:00
1:53 AM,36.0,35.1,97,30.05,3.0,Calm,Calm,-,N/A,,Overcast,0,2013-01-01 07:53:00
2:11 AM,35.6,35.6,100,30.02,2.0,Calm,Calm,-,N/A,,Overcast,0,2013-01-01 08:11:00
2:48 AM,35.6,35.6,100,30.01,1.5,Calm,Calm,-,N/A,,Overcast,0,2013-01-01 08:48:00
2:53 AM,36.0,36.0,100,30.05,2.0,Calm,Calm,-,N/A,,Overcast,0,2013-01-01 08:53:00
3:04 AM,35.6,35.6,100,30.03,4.0,Calm,Calm,-,N/A,,Overcast,0,2013-01-01 09:04:00
3:20 AM,37.4,35.6,93,30.03,2.0,Calm,Calm,-,N/A,,Overcast,0,2013-01-01 09:20:00
3:27 AM,35.6,35.6,100,30.03,1.5,Calm,Calm,-,N/A,,Overcast,0,2013-01-01 09:27:00
3:46 AM,37.4,37.4,100,30.03,3.0,Calm,Calm,-,N/A,,Overcast,0,2013-01-01 09:46:00
3:53 AM,36.0,36.0,100,30.06,4.0,Calm,Calm,-,N/A,,Overcast,0,2013-01-01 09:53:00
4:04 AM,35.6,35.6,100,30.03,2.5,Calm,Calm,-,N/A,,Overcast,0,2013-01-01 10:04:00
4:13 AM,35.6,35.6,100,30.02,1.0,Calm,Calm,-,N/A,,Overcast,0,2013-01-01 10:13:00
4:24 AM,35.6,35.6,100,30.02,0.8,Calm,Calm,-,N/A,,Overcast,0,2013-01-01 10:24:00
4:53 AM,36.0,36.0,100,30.05,1.0,Calm,Calm,-,N/A,,Overcast,0,2013-01-01 10:53:00
5:49 AM,35.6,35.6,100,30.04,1.0,Calm,Calm,-,N/A,,Overcast,0,2013-01-01 11:49:00
5:53 AM,37.0,36.0,96,30.07,1.2,Calm,Calm,-,N/A,,Overcast,0,2013-01-01 11:53:00
6:01 AM,35.6,35.6,100,30.04,3.0,Calm,Calm,-,N/A,,Overcast,0,2013-01-01 12:01:00
6:19 AM,37.4,37.4,100,30.03,1.8,Calm,Calm,-,N/A,,Overcast,0,2013-01-01 12:19:00
6:53 AM,37.0,37.0,100,30.06,3.0,Calm,Calm,-,N/A,,Overcast,0,2013-01-01 12:53:00
7:01 AM,37.4,37.4,100,30.03,2.5,Calm,Calm,-,N/A,,Overcast,0,2013-01-01 13:01:00
7:11 AM,35.6,35.6,100,30.05,4.0,NW,3.5,-,N/A,,Overcast,310,2013-01-01 13:11:00
7:20 AM,37.4,35.6,93,30.05,6.0,Calm,Calm,-,N/A,,Overcast,0,2013-01-01 13:20:00
7:44 AM,37.4,37.4,100,30.07,4.0,Calm,Calm,-,N/A,,Overcast,0,2013-01-01 13:44:00
7:53 AM,37.0,37.0,100,30.09,3.0,Calm,Calm,-,N/A,,Overcast,0,2013-01-01 13:53:00
8:02 AM,37.4,35.6,93,30.08,2.0,WNW,3.5,-,N/A,,Overcast,300,2013-01-01 14:02:00
8:20 AM,37.4,37.4,100,30.09,4.0,WNW,4.6,-,N/A,,Overcast,290,2013-01-01 14:20:00
8:37 AM,37.4,37.4,100,30.10,2.5,NW,3.5,-,N/A,,Overcast,310,2013-01-01 14:37:00
8:53 AM,37.9,37.0,97,30.16,3.0,West,3.5,-,N/A,,Overcast,280,2013-01-01 14:53:00
9:17 AM,37.4,37.4,100,30.12,4.0,Calm,Calm,-,0.00,Rain,Light Rain,0,2013-01-01 15:17:00
9:32 AM,37.4,37.4,100,30.11,6.0,Calm,Calm,-,0.00,Rain,Light Rain,0,2013-01-01 15:32:00
9:53 AM,39.0,37.9,96,30.13,5.0,Calm,Calm,-,0.00,,Overcast,0,2013-01-01 15:53:00
10:48 AM,39.2,37.4,93,30.13,4.0,NNW,4.6,-,N/A,,Overcast,340,2013-01-01 16:48:00
10:53 AM,39.0,37.9,96,30.16,4.0,NW,3.5,-,N/A,,Overcast,320,2013-01-01 16:53:00
11:04 AM,39.2,37.4,93,30.13,5.0,NNW,4.6,-,N/A,,Overcast,330,2013-01-01 17:04:00
11:53 AM,39.0,37.9,96,30.13,5.0,Variable,3.5,-,N/A,,Overcast,0,2013-01-01 17:53:00
12:53 PM,39.0,37.9,96,30.13,4.0,Variable,3.5,-,N/A,,Overcast,0,2013-01-01 18:53:00
1:53 PM,39.9,37.9,93,30.13,5.0,NW,3.5,-,N/A,,Overcast,320,2013-01-01 19:53:00
2:53 PM,39.9,37.9,93,30.13,5.0,NW,5.8,-,N/A,,Overcast,320,2013-01-01 20:53:00
3:53 PM,39.0,37.9,96,30.15,4.0,NNW,6.9,-,N/A,,Overcast,330,2013-01-01 21:53:00
4:53 PM,39.0,37.9,96,30.16,4.0,NNW,3.5,-,N/A,,Overcast,330,2013-01-01 22:53:00
5:32 PM,37.4,35.6,93,30.15,9.0,Variable,6.9,-,N/A,,Overcast,0,2013-01-01 23:32:00
5:53 PM,37.9,36.0,93,30.18,9.0,NNW,4.6,-,N/A,,Overcast,340,2013-01-01 23:53:00
6:37 PM,37.4,35.6,93,30.16,9.0,NW,3.5,-,N/A,,Overcast,320,2013-01-02 00:37:00
6:53 PM,37.0,35.1,93,30.19,9.0,NW,3.5,-,N/A,,Overcast,310,2013-01-02 00:53:00
7:23 PM,37.4,35.6,93,30.16,7.0,Calm,Calm,-,N/A,,Overcast,0,2013-01-02 01:23:00
7:32 PM,37.4,35.6,93,30.16,7.0,NNW,4.6,-,N/A,,Overcast,340,2013-01-02 01:32:00
7:53 PM,37.0,35.1,93,30.20,7.0,Calm,Calm,-,N/A,,Overcast,0,2013-01-02 01:53:00
8:53 PM,36.0,34.0,93,30.22,6.0,NNW,4.6,-,N/A,,Overcast,330,2013-01-02 02:53:00
9:53 PM,35.1,33.1,92,30.21,5.0,NW,4.6,-,N/A,,Overcast,310,2013-01-02 03:53:00
10:53 PM,35.1,33.1,92,30.22,4.0,NW,3.5,-,N/A,,Overcast,320,2013-01-02 04:53:00
11:53 PM,35.1,34.0,96,30.22,3.0,Calm,Calm,-,N/A,,Overcast,0,2013-01-02 05:53:00